Regional Weather Roundup
Issued by NWS

Home | Current Version | Previous Version | Text Only | Print | Product List | Glossary Off
Versions: 1 2 3 4 5 6 7 8 9 10 11 12 13 14 15 16 17 18 19 20 21 22 23 24 25 26 27 28 29 30 31 32 33 34 35 36 37 38 39 40 41 42 43 44 45 46 47 48 49 50

000
ASUS43 KMKX 181821
RWRWI

WISCONSIN REGIONAL WEATHER ROUNDUP
NATIONAL WEATHER SERVICE MILWAUKEE/SULLIVAN WI
100 PM CDT FRI AUG 18 2017

NOTE: "FAIR" INDICATES FEW OR NO CLOUDS BELOW 12,000 FEET WITH NO
SIGNIFICANT WEATHER AND/OR OBSTRUCTIONS TO VISIBILITY.

WIZ001-002-006>008-014>016-023>028-181900-
NORTHWEST WISCONSIN

CITY           SKY/WX    TMP DP  RH WIND       PRES   REMARKS
SUPERIOR ARPT    N/A     71  63  76 SW3       29.84F
6HR MIN TEMP:  55; 6HR MAX TEMP:  71;

ASHLAND        CLOUDY    68  58  70 VRB3      29.85S
6HR MIN TEMP:  61; 6HR MAX TEMP:  71;

HAYWARD        CLOUDY    70  56  61 VRB6      29.87F
6HR MIN TEMP:  57; 6HR MAX TEMP:  70;

SIREN          PTSUNNY   66  61  84 W5        29.89S
6HR MIN TEMP:  54; 6HR MAX TEMP:  66;

CUMBERLAND     CLOUDY    68  59  73 NW6       29.89S
RICE LAKE      CLOUDY    69  62  77 NW6       29.90S
6HR MIN TEMP:  56; 6HR MAX TEMP:  69;

CHETEK         CLOUDY    69  61  75 NW5       29.89S
6HR MIN TEMP:  58; 6HR MAX TEMP:  69;

LADYSMITH      MOSUNNY   69  59  69 W7        29.89S
6HR MIN TEMP:  59; 6HR MAX TEMP:  69;

EAU CLAIRE     PTSUNNY   71  61  70 W9        29.87F
6HR MIN TEMP:  59; 6HR MAX TEMP:  71;

MENOMONIE      CLOUDY    71  63  76 SW8       29.89S
6HR MIN TEMP:  59; 6HR MAX TEMP:  71;

NEW RICHMOND   CLOUDY    70  62  77 W8        29.90S
6HR MIN TEMP:  57; 6HR MAX TEMP:  70;

OSCEOLA        MOSUNNY   70  62  75 W5        29.92S
6HR MIN TEMP:  56; 6HR MAX TEMP:  71;

$$

WIZ003>005-009-010-017-018-181900-
NORTH CENTRAL WISCONSIN

CITY           SKY/WX    TMP DP  RH WIND       PRES   REMARKS
MANITOWISH WTR CLOUDY    66  57  74 NW10      29.84S
6HR MIN TEMP:  58; 6HR MAX TEMP:  67;

ARBOR VITAE    CLOUDY    71  60  67 NW10G16   29.83S
6HR MIN TEMP:  59; 6HR MAX TEMP:  71;

WOODRUFF       CLOUDY    71  60  67 NW10G16   29.83S
6HR MIN TEMP:  59; 6HR MAX TEMP:  71;

RHINELANDER    MOSUNNY   67  57  70 NW9G18    29.84R
6HR MIN TEMP:  59; 6HR MAX TEMP:  68; 6HR PCP: TRACE;

EAGLE RIVER    CLOUDY    67  54  63 NW14G20   29.82S
6HR MIN TEMP:  58; 6HR MAX TEMP:  67;

LAND O LAKES   CLOUDY    66  55  66 NW13G18   29.84R
6HR MIN TEMP:  58; 6HR MAX TEMP:  67;

PHILLIPS       CLOUDY    67  58  73 NW7       29.86S
6HR MIN TEMP:  59; 6HR MAX TEMP:  67;

TOMAHAWK         N/A     67  55  66 NW12G17   29.85S
6HR MIN TEMP:  59; 6HR MAX TEMP:  67;

MEDFORD        CLOUDY    67  58  73 W10       29.87R
6HR MIN TEMP:  59; 6HR MAX TEMP:  67;

MERRILL        CLOUDY    66  59  77 NW8       29.85S
$$

WIZ029-030-035-036-043>047-181900-
CENTRAL WISCONSIN

CITY           SKY/WX    TMP DP  RH WIND       PRES   REMARKS
WAUSAU         CLOUDY    68  57  68 NW9       29.84R
6HR MIN TEMP:  62; 6HR MAX TEMP:  68;

MOSINEE        CLOUDY    66  59  77 NW9       29.86R
MARSHFIELD     CLOUDY    69  57  65 W14       29.86S
6HR MIN TEMP:  61; 6HR MAX TEMP:  71;

STEVENS POINT  CLOUDY    67  57  69 W9        29.86S
6HR MIN TEMP:  61; 6HR MAX TEMP:  68;

WAUPACA        CLOUDY    70  58  66 NW10      29.84R
6HR MIN TEMP:  66; 6HR MAX TEMP:  70;

WAUTOMA        CLOUDY    72  60  66 W9G18     29.86R
6HR MIN TEMP:  64; 6HR MAX TEMP:  73;

WISC RAPIDS    CLOUDY    71  59  65 NW10      29.87R
6HR MIN TEMP:  63; 6HR MAX TEMP:  73;

CAMP DOUGLAS   CLOUDY    70  59  68 W15G23    29.88R
$$

WIZ011>013-019>022-031-037>040-048>050-181900-
NORTHEAST WISCONSIN

CITY           SKY/WX    TMP DP  RH WIND       PRES   REMARKS
ANTIGO         CLOUDY    65  58  79 NW14      29.83S
6HR MIN TEMP:  59; 6HR MAX TEMP:  66;

SHAWANO        CLOUDY    72  59  63 W9        29.80R
6HR MIN TEMP:  66; 6HR MAX TEMP:  73;

OCONTO         PTSUNNY   71  57  62 NW8       29.77F
6HR MIN TEMP:  62; 6HR MAX TEMP:  71;

STURGEON BAY   CLOUDY    67  59  75 NW10      29.78S
6HR MIN TEMP:  65; 6HR MAX TEMP:  68;

GREEN BAY      CLOUDY    73  63  70 NW10G18   29.79F
6HR MIN TEMP:  64; 6HR MAX TEMP:  73;

MANITOWOC      CLOUDY    72  57  60 W14G22    29.81R
APPLETON       CLOUDY    70  55  60 W14       29.81S
CLINTONVILLE   CLOUDY    70  57  64 W9        29.82R
OSHKOSH        CLOUDY    69  59  70 W10       29.83R
6HR MIN TEMP:  65; 6HR MAX TEMP:  69;

$$

WIZ032>034-041-042-053>061-181900-
SOUTHWEST WISCONSIN

CITY           SKY/WX    TMP DP  RH WIND       PRES   REMARKS
LA CROSSE      LGT RAIN  73  61  65 NW8       29.88F
6HR MIN TEMP:  66; 6HR MAX TEMP:  74; 6HR PCP: TRACE;

SPARTA         CLOUDY    68  60  75 W6        29.90F
6HR MIN TEMP:  58; 6HR MAX TEMP:  72;

VIROQUA        CLOUDY    68  60  73 NW9       29.91F
6HR MIN TEMP:  61; 6HR MAX TEMP:  70;

BOSCOBEL       CLOUDY    74  61  63 VRB6      29.88F
6HR MIN TEMP:  63; 6HR MAX TEMP:  76;

PRAIRIE DU CHI CLOUDY    74  56  52 W3        29.89S
6HR MIN TEMP:  62; 6HR MAX TEMP:  75;

PLATTEVILLE    MOSUNNY   72  62  72 NW6       29.90F
6HR MIN TEMP:  61; 6HR MAX TEMP:  72;

$$

WIZ056-057-062-063-064-067-068-181900-
SOUTH CENTRAL WISCONSIN

CITY           SKY/WX    TMP DP  RH WIND       PRES   REMARKS
REEDSBURG      CLOUDY    73  58  60 W9        29.87F
6HR MIN TEMP:  62; 6HR MAX TEMP:  75;

BARABOO/DELLS  CLOUDY    73  55  53 W13       29.87S
6HR MIN TEMP:  64; 6HR MAX TEMP:  75;

LONE ROCK      PTSUNNY   74  61  63 NW7       29.87F
6HR MIN TEMP:  64; 6HR MAX TEMP:  75;

MINERAL POINT  CLOUDY    73  61  64 NW6       29.90S
MADISON        PTSUNNY   74  59  59 W8        29.86S
6HR MIN TEMP:  65; 6HR MAX TEMP:  75;

MIDDLETON      PTSUNNY   76  60  57 W14       29.88F
6HR MIN TEMP:  65; 6HR MAX TEMP:  76;

WATERTOWN      CLOUDY    73  63  69 W9        29.86S
6HR MIN TEMP:  65; 6HR MAX TEMP:  73;

MONROE         MOSUNNY   73  59  60 W10       29.89F
JANESVILLE     PTSUNNY   77  61  57 NW12G17   29.88S
$$

WIZ051-052-058>065-066-070>072-181900-
SOUTHEAST WISCONSIN

CITY           SKY/WX    TMP DP  RH WIND       PRES   REMARKS
MILWAUKEE      PTSUNNY   74  59  59 NW8       29.84F
6HR MIN TEMP:  69; 6HR MAX TEMP:  76;

WAUKESHA       CLOUDY    70  57  64 W13G18    29.86F
MILWAUKEE/TIMM CLOUDY    72  55  56 W9G16     29.85F
RACINE         PTSUNNY   73  60  63 W9        29.86F
6HR MIN TEMP:  68; 6HR MAX TEMP:  74;

KENOSHA        MOSUNNY   74  60  61 W9G17     29.86F
6HR MIN TEMP:  66; 6HR MAX TEMP:  75;

FOND DU LAC    CLOUDY    70  57  63 NW10G18   29.84R
6HR MIN TEMP:  65; 6HR MAX TEMP:  70;

SHEBOYGAN      CLOUDY    70  62  76 W10G18    29.82R
6HR MIN TEMP:  66; 6HR MAX TEMP:  71;

WEST BEND      CLOUDY    68  59  73 W12       29.85R
JUNEAU         CLOUDY    71  60  67 W9        29.87S
6HR MIN TEMP:  64; 6HR MAX TEMP:  71;

$$

LSZ147-162-181900-
LAKE SUPERIOR

STATION/POSITION TIME  TEMP    WIND        PRES    WAVE
                       AIR SEA DIR/SP/G            HT/PER
                 (UTC) (F)     (DEG/KT/KT) (MB)    (FT/S)
W MID LAKE BUOY  1750   62 61  270/ 14/ 16 1008.9F   2/ 5
DEVILS ISLAND    1800   62     240/ 12/ 14 1010.3F
PORT WING        1740   71     290/  4/  4 1010.8
SAXON HARBOR     1730   65     320/  8/ 10 1010.5R
$$

LMZ867-665-643>646-181900-
LAKE MICHIGAN

STATION/POSITION TIME  TEMP    WIND        PRES    WAVE
                       AIR SEA DIR/SP/G            HT/PER
                 (UTC) (F)     (DEG/KT/KT) (MB)    (FT/S)
S GREEN BAY BUOY 1800   69 71  330/ 16/ 19 1008.3
N MID LAKE BUOY  1750   65 67  280/ 16/ 17 1007.4R   4/ 5
NORTHPORT PIER   1740   66     310/ 14/ 17 1007.5S
KEWAUNEE LAKESHO 1800   70     300/  8/


USA.gov is the U.S. government's official web portal to all federal, state and local government web resources and services.